When you browse on this site, cookies collect data to enhance your experience and personalize the content and advertising you see.
Visit our Privacy Policy to learn more. By continuing to use the site, you agree to this use of cookies and data.

Hourly Weather Drebsk

Today, 11 July, Saturday

Time Temperature Precipitation Wind Pressure Humidity
00:00 +20°C° 0 mm 4 mps 748 mmHg 94%
01:00 +20°C° 0 mm 5 mps 748 mmHg 94%
02:00 +20°C° 0 mm 5 mps 748 mmHg 93%
03:00 +20°C° 0 mm 5 mps 748 mmHg 93%
04:00 +19°C° 0 mm 4 mps 748 mmHg 93%
05:00 +19°C° 0 mm 4 mps 748 mmHg 93%
06:00 +20°C° 0 mm 4 mps 748 mmHg 90%
07:00 +22°C° 0 mm 4 mps 749 mmHg 86%
08:00 +23°C° 0 mm 4 mps 749 mmHg 83%
09:00 +25°C° 0 mm 3 mps 749 mmHg 78%
10:00 +26°C° 0 mm 2 mps 750 mmHg 72%
11:00 +27°C° 0 mm 1 mps 750 mmHg 67%
12:00 +27°C° 0.7 mm 2 mps 750 mmHg 71%
13:00 +27°C° 0.7 mm 3 mps 750 mmHg 74%
14:00 +27°C° 0.7 mm 3 mps 750 mmHg 78%
15:00 +26°C° 0.6 mm 4 mps 750 mmHg 79%
16:00 +25°C° 0.6 mm 4 mps 750 mmHg 79%
17:00 +25°C° 0.6 mm 4 mps 750 mmHg 80%
18:00 +22°C° 0.3 mm 4 mps 750 mmHg 83%
19:00 +21°C° 0.3 mm 4 mps 750 mmHg 87%
20:00 +19°C° 0.3 mm 4 mps 750 mmHg 90%
21:00 +18°C° 0.8 mm 4 mps 750 mmHg 91%
22:00 +17°C° 0.8 mm 4 mps 750 mmHg 91%
23:00 +15°C° 0.8 mm 4 mps 750 mmHg 92%

Tomorrow, 12 July, Sunday

Time Temperature Precipitation Wind Pressure Humidity
00:00 +14°C° 1.9 mm 5 mps 750 mmHg 93%
01:00 +14°C° 1.9 mm 5 mps 750 mmHg 94%
02:00 +13°C° 1.9 mm 5 mps 750 mmHg 94%
03:00 +13°C° 0.3 mm 5 mps 750 mmHg 94%
04:00 +12°C° 0.3 mm 5 mps 750 mmHg 94%
05:00 +12°C° 0.3 mm 5 mps 750 mmHg 94%
06:00 +11°C° 0.3 mm 6 mps 750 mmHg 94%
07:00 +11°C° 0.3 mm 6 mps 751 mmHg 94%
08:00 +11°C° 0.3 mm 6 mps 751 mmHg 95%
09:00 +11°C° 0.3 mm 6 mps 751 mmHg 94%
10:00 +10°C° 0.3 mm 6 mps 751 mmHg 93%
11:00 +10°C° 0.3 mm 5 mps 751 mmHg 93%
12:00 +10°C° 0.4 mm 5 mps 751 mmHg 93%
13:00 +10°C° 0.4 mm 5 mps 752 mmHg 94%
14:00 +9°C° 0.4 mm 5 mps 752 mmHg 94%
15:00 +10°C° 0.5 mm 5 mps 752 mmHg 94%
16:00 +11°C° 0.5 mm 4 mps 752 mmHg 94%
17:00 +11°C° 0.5 mm 4 mps 752 mmHg 93%
18:00 +11°C° 0 mm 3 mps 752 mmHg 94%
19:00 +12°C° 0 mm 2 mps 752 mmHg 94%
20:00 +12°C° 0 mm 1 mps 751 mmHg 94%
21:00 +12°C° 0 mm 1 mps 751 mmHg 94%
22:00 +10°C° 0 mm 2 mps 751 mmHg 95%
23:00 +10°C° 0 mm 2 mps 751 mmHg 95%

Day after tomorrow, 13 July, Monday

Time Temperature Precipitation Wind Pressure Humidity
00:00 +10°C° 0 mm 2 mps 751 mmHg 95%
01:00 +10°C° 0 mm 3 mps 752 mmHg 96%
02:00 +10°C° 0 mm 3 mps 752 mmHg 96%
03:00 +10°C° 0 mm 3 mps 751 mmHg 96%
04:00 +9°C° 0 mm 3 mps 751 mmHg 96%
05:00 +9°C° 0 mm 3 mps 751 mmHg 96%
06:00 +11°C° 0 mm 4 mps 751 mmHg 91%
07:00 +12°C° 0 mm 4 mps 751 mmHg 86%
08:00 +13°C° 0 mm 5 mps 751 mmHg 81%
09:00 +15°C° 0 mm 5 mps 751 mmHg 75%
10:00 +17°C° 0 mm 4 mps 751 mmHg 69%
11:00 +18°C° 0 mm 4 mps 751 mmHg 63%
12:00 +17°C° 0.1 mm 5 mps 751 mmHg 63%
13:00 +19°C° 0.1 mm 5 mps 750 mmHg 63%
14:00 +19°C° 0.1 mm 5 mps 750 mmHg 64%
15:00 +19°C° 0 mm 4 mps 750 mmHg 64%
16:00 +19°C° 0 mm 4 mps 750 mmHg 64%
17:00 +19°C° 0 mm 4 mps 749 mmHg 65%
18:00 +18°C° 0 mm 3 mps 749 mmHg 71%
19:00 +16°C° 0 mm 3 mps 749 mmHg 77%
20:00 +15°C° 0 mm 2 mps 749 mmHg 84%
21:00 +13°C° 0 mm 3 mps 749 mmHg 87%
22:00 +12°C° 0 mm 3 mps 749 mmHg 89%
23:00 +11°C° 0 mm 3 mps 749 mmHg 92%

14 July, Tuesday

Time Temperature Precipitation Wind Pressure Humidity
00:00 +11°C° 0 mm 3 mps 750 mmHg 93%
01:00 +11°C° 0 mm 3 mps 750 mmHg 94%
02:00 +10°C° 0 mm 2 mps 750 mmHg 95%
03:00 +10°C° 0 mm 2 mps 750 mmHg 95%
04:00 +10°C° 0 mm 2 mps 750 mmHg 95%
05:00 +10°C° 0 mm 2 mps 750 mmHg 95%
06:00 +13°C° 0 mm 2 mps 750 mmHg 90%
07:00 +14°C° 0 mm 3 mps 750 mmHg 84%
08:00 +17°C° 0 mm 3 mps 750 mmHg 79%
09:00 +18°C° 0 mm 3 mps 750 mmHg 73%
10:00 +19°C° 0 mm 3 mps 750 mmHg 68%
11:00 +21°C° 0 mm 3 mps 750 mmHg 62%
12:00 +21°C° 0.1 mm 3 mps 750 mmHg 61%
13:00 +22°C° 0.1 mm 4 mps 750 mmHg 60%
14:00 +22°C° 0.1 mm 4 mps 749 mmHg 59%
15:00 +22°C° 0.1 mm 3 mps 749 mmHg 61%
16:00 +22°C° 0.1 mm 3 mps 749 mmHg 63%
17:00 +21°C° 0.1 mm 3 mps 749 mmHg 64%
18:00 +20°C° 0.1 mm 3 mps 749 mmHg 70%
19:00 +18°C° 0.1 mm 2 mps 749 mmHg 76%
20:00 +17°C° 0.1 mm 2 mps 749 mmHg 82%
21:00 +16°C° 0 mm 1 mps 749 mmHg 85%
22:00 +15°C° 0 mm 1 mps 749 mmHg 87%
23:00 +14°C° 0 mm 1 mps 750 mmHg 89%

15 July, Wednesday

Time Temperature Precipitation Wind Pressure Humidity
00:00 +13°C° 0 mm 1 mps 750 mmHg 90%
01:00 +13°C° 0 mm 1 mps 750 mmHg 91%
02:00 +12°C° 0 mm 1 mps 750 mmHg 92%
03:00 +12°C° 0 mm 1 mps 750 mmHg 92%
04:00 +12°C° 0 mm 1 mps 750 mmHg 91%
05:00 +11°C° 0 mm 0 mps 749 mmHg 91%
06:00 +13°C° 0 mm 0 mps 750 mmHg 86%
07:00 +15°C° 0 mm 0 mps 750 mmHg 80%
08:00 +17°C° 0 mm 0 mps 750 mmHg 74%
09:00 +18°C° 0 mm 0 mps 749 mmHg 69%
10:00 +20°C° 0 mm 0 mps 749 mmHg 64%
11:00 +23°C° 0 mm 1 mps 749 mmHg 59%
12:00 +23°C° 0.2 mm 1 mps 749 mmHg 59%
13:00 +23°C° 0.2 mm 1 mps 749 mmHg 59%
14:00 +24°C° 0.2 mm 2 mps 748 mmHg 60%
15:00 +23°C° 0.3 mm 1 mps 748 mmHg 62%
16:00 +23°C° 0.3 mm 1 mps 748 mmHg 64%
17:00 +23°C° 0.3 mm 1 mps 747 mmHg 67%
18:00 +22°C° 0 mm 1 mps 747 mmHg 72%
19:00 +20°C° 0 mm 1 mps 747 mmHg 76%
20:00 +18°C° 0 mm 2 mps 747 mmHg 81%
21:00 +17°C° 0 mm 2 mps 747 mmHg 83%
22:00 +16°C° 0 mm 2 mps 747 mmHg 85%
23:00 +16°C° 0 mm 2 mps 747 mmHg 87%

16 July, Thursday

Time Temperature Precipitation Wind Pressure Humidity
00:00 +15°C° 0 mm 2 mps 747 mmHg 89%
01:00 +15°C° 0 mm 2 mps 746 mmHg 90%
02:00 +15°C° 0 mm 2 mps 746 mmHg 91%
03:00 +15°C° 0 mm 2 mps 746 mmHg 92%
04:00 +14°C° 0 mm 3 mps 745 mmHg 92%
05:00 +14°C° 0 mm 3 mps 745 mmHg 93%
06:00 +16°C° 0.2 mm 3 mps 745 mmHg 93%
07:00 +17°C° 0.2 mm 3 mps 745 mmHg 92%
08:00 +17°C° 0.2 mm 3 mps 745 mmHg 91%
09:00 +17°C° 0.3 mm 3 mps 745 mmHg 92%
10:00 +17°C° 0.3 mm 4 mps 745 mmHg 93%
11:00 +17°C° 0.3 mm 4 mps 744 mmHg 93%
12:00 +18°C° 0.1 mm 4 mps 744 mmHg 87%
13:00 +19°C° 0.1 mm 4 mps 744 mmHg 81%
14:00 +21°C° 0.1 mm 5 mps 744 mmHg 75%
15:00 +20°C° 0.4 mm 5 mps 744 mmHg 76%
16:00 +20°C° 0.4 mm 5 mps 744 mmHg 77%
17:00 +20°C° 0.4 mm 5 mps 744 mmHg 78%
18:00 +17°C° 0.2 mm 5 mps 744 mmHg 81%
19:00 +17°C° 0.2 mm 4 mps 744 mmHg 85%
20:00 +15°C° 0.2 mm 4 mps 744 mmHg 89%
21:00 +14°C° 0.1 mm 3 mps 744 mmHg 91%
22:00 +13°C° 0.1 mm 3 mps 744 mmHg 93%
23:00 +12°C° 0.1 mm 3 mps 745 mmHg 95%
Show more